This is the latest recevied weather packets stored in our database for station/object G4KVI. If no packets are shown the sender has not sent any weather packets the latest 10 day(s).
| Time | Temp. | Humidity | Pressure | Rain* | Wind** | Luminosity | Snow |
|---|---|---|---|---|---|---|---|
| 1788100204 | 20° C | 67% | 1009.6 hPa | 0 mm | - | 248 W/m² | - |
| 1788099904 | 20.56° C | 66% | 1009.6 hPa | 0 mm | - | 126 W/m² | - |
| 1788099604 | 20.56° C | 65% | 1009.5 hPa | 0 mm | - | 155 W/m² | - |
| 1788099304 | 20° C | 66% | 1009.6 hPa | 0 mm | - | 223 W/m² | - |
| 1788099004 | 20° C | 67% | 1009.5 hPa | 0 mm | - | 360 W/m² | - |
| 1788098704 | 20° C | 66% | 1009.6 hPa | 0 mm | - | 116 W/m² | - |
| 1788098404 | 20.56° C | 65% | 1009.6 hPa | 0 mm | - | 119 W/m² | - |
| 1788098104 | 20.56° C | 66% | 1009.6 hPa | 0 mm | - | 219 W/m² | - |
| 1788097804 | 20.56° C | 65% | 1009.6 hPa | 0 mm | - | 307 W/m² | - |
| 1788097504 | 20.56° C | 66% | 1009.6 hPa | 0 mm | - | 196 W/m² | - |
| 1788097204 | 21.11° C | 65% | 1009.7 hPa | 0 mm | - | 234 W/m² | - |
| 1788096904 | 21.67° C | 64% | 1009.5 hPa | 0 mm | - | 401 W/m² | - |
| 1788096604 | 20.56° C | 66% | 1009.5 hPa | 0 mm | - | 701 W/m² | - |
| 1788096304 | 21.11° C | 66% | 1009.6 hPa | 0 mm | - | 267 W/m² | - |
| 1788096004 | 21.11° C | 66% | 1009.8 hPa | 0 mm | - | 144 W/m² | - |
| 1788095704 | 20.56° C | 67% | 1009.6 hPa | 0 mm | - | 382 W/m² | - |
| 1788095404 | 20.56° C | 68% | 1009.8 hPa | 0 mm | - | 299 W/m² | - |
| 1788095104 | 20° C | 70% | 1009.7 hPa | 0 mm | - | 216 W/m² | - |
| 1788094804 | 20.56° C | 68% | 1009.7 hPa | 0 mm | - | 118 W/m² | - |
| 1788094504 | 21.11° C | 66% | 1010.1 hPa | 0 mm | - | 257 W/m² | - |
| 1788094204 | 20.56° C | 66% | 1009.9 hPa | 0 mm | - | 553 W/m² | - |
| 1788093904 | 20.56° C | 67% | 1010.1 hPa | 0 mm | - | 352 W/m² | - |
| 1788093604 | 20° C | 68% | 1010 hPa | 0 mm | - | 464 W/m² | - |
| 1788093304 | 20° C | 69% | 1010.1 hPa | 0 mm | - | 320 W/m² | - |
| 1788093004 | 20° C | 68% | 1010.2 hPa | 0 mm | - | 321 W/m² | - |
* Rain latest hour (hover to see other rain measurements)
** Current wind speed in m/s (hover to see current wind gust speed)